Location: Amsterdam
(30.7274°N, 84.4357°W)
Time: 02:16:25
(UTC+00:00)

Courier 1B Rocket - Pass Details

Date: 10 February 2026
Orbit: 920 x 1201 km, 28.2° (Epoch: 13 March)

Event Time Altitude Azimuth Distance (km) Brightness Sun altitude
Rises 02:35:16 0° 227° (SW) 3,637 8.4 -42.2°
Enters shadow 02:38:02 10° 218° (SW) 2,747 7.6 -42.8°
Reaches altitude 10° 02:38:05 10° 218° (SW) 2,728 - -42.8°
Maximum altitude 02:43:56 33° 156° (SSE) 1,640 - -44.0°
Drops below altitude 10° 02:50:10 10° 94° (E) 2,916 - -45.3°
Sets 02:53:17 0° 86° (E) 3,921 - -46.0°
